Brownsville, TX

12:27 PM CST on February 07, 2016 (GMT -0600)
Brownsville-South Padre I International

Weather History for KBRO - March, 2013

Change the Weather History Date:

Friday, March 1, 2013

  Actual Average Record
Temperature  
Mean Temperature 63 °F 66 °F  
Max Temperature 75 °F 76 °F 93 °F (1991)
Min Temperature 50 °F 57 °F 31 °F (1890)
Degree Days  
Heating Degree Days 2 2  
Month to date heating degree days 2 2  
Since 1 July heating degree days 295 505  
Cooling Degree Days 0 4  
Month to date cooling degree days 0 4  
Year to date cooling degree days 221 145  
Growing Degree Days 14 (Base 50)    
Moisture  
Dew Point 35 °F    
Average Humidity 43    
Maximum Humidity 71    
Minimum Humidity 14    
Precipitation  
Precipitation 0.00 in 0.04 in 1.45 in (1895)
Month to date precipitation 0.00 0.04  
Year to date precipitation 1.48 2.39  
Sea Level Pressure  
Sea Level Pressure 30.24 in    
Wind  
Wind Speed 5 mph (SSW)    
Max Wind Speed 16 mph    
Max Gust Speed 21 mph    
Visibility 10 miles    
Events      
T = Trace of Precipitation, MM = Missing Value Source: NWS Daily Summary

Daily Weather History Graph

Daily Weather History Graph

Search for Another Location

Airport or City:

Trip Planner

Search our weather history database for the weather conditions in past years. The results will help you decide how hot, cold, wet, or windy it might be!

Date:

Astronomy

Mar. 01, 2013 Rise Set
Actual Time 6:52 AM CST 6:31 PM CST
Civil Twilight 6:29 AM CST 6:54 PM CST
Nautical Twilight 6:02 AM CST 7:21 PM CST
Astronomical Twilight 5:36 AM CST 7:48 PM CST
Moon 10:33 PM CST (3/1) 9:09 AM CST (3/1)
Length of Visible Light 12h 25m
Length of Day
11h 38m
Waning Gibbous, 83% of the Moon is Illuminated
Mar 1
Waning Gibbous
Mar 4
Last Quarter
Mar 11
New
Mar 19
First Quarter
Mar 27
Full

Hourly Weather History & Observations

Time (CST) Temp. Dew Point Humidity Pressure Visibility Wind Dir Wind Speed Gust Speed Precip Events Conditions
12:53 AM 54.0 °F 39.0 °F 57% 30.28 in 10.0 mi NNW 4.6 mph - N/A   Clear
1:53 AM 54.0 °F 37.0 °F 53% 30.26 in 10.0 mi Calm Calm - N/A   Clear
2:53 AM 54.0 °F 35.1 °F 49% 30.25 in 10.0 mi NNW 3.5 mph - N/A   Clear
3:53 AM 54.0 °F 34.0 °F 47% 30.23 in 10.0 mi Calm Calm - N/A   Clear
4:53 AM 53.1 °F 34.0 °F 48% 30.23 in 10.0 mi Calm Calm - N/A   Clear
5:53 AM 53.1 °F 33.1 °F 47% 30.25 in 10.0 mi NNW 4.6 mph - N/A   Clear
6:53 AM 53.1 °F 32.0 °F 45% 30.26 in 10.0 mi NW 3.5 mph - N/A   Clear
7:53 AM 54.0 °F 34.0 °F 47% 30.27 in 10.0 mi NW 3.5 mph - N/A   Clear
8:53 AM 59.0 °F 34.0 °F 39% 30.30 in 10.0 mi NW 5.8 mph - N/A   Clear
9:53 AM 64.0 °F 34.0 °F 33% 30.31 in 10.0 mi NW 5.8 mph - N/A   Clear
10:53 AM 66.9 °F 30.9 °F 26% 30.30 in 10.0 mi Variable 3.5 mph - N/A   Clear
11:53 AM 69.1 °F 30.0 °F 23% 30.28 in 10.0 mi Calm Calm - N/A   Clear
12:53 PM 71.1 °F 25.0 °F 18% 30.24 in 10.0 mi Variable 5.8 mph - N/A   Clear
1:53 PM 71.1 °F 21.9 °F 16% 30.21 in 10.0 mi Calm Calm - N/A   Clear
2:53 PM 72.0 °F 19.9 °F 14% 30.18 in 10.0 mi Calm Calm - N/A   Clear
3:53 PM 71.1 °F 37.0 °F 29% 30.17 in 10.0 mi ESE 12.7 mph - N/A   Clear
4:53 PM 68.0 °F 39.9 °F 36% 30.17 in 10.0 mi SE 13.8 mph - N/A   Clear
5:53 PM 64.9 °F 39.9 °F 40% 30.19 in 10.0 mi SE 11.5 mph - N/A   Clear
6:53 PM 60.1 °F 42.1 °F 51% 30.20 in 10.0 mi SE 8.1 mph - N/A   Clear
7:53 PM 57.9 °F 43.0 °F 58% 30.21 in 10.0 mi SE 9.2 mph - N/A   Clear
8:53 PM 54.0 °F 43.0 °F 66% 30.21 in 10.0 mi SSE 8.1 mph - N/A   Clear
9:53 PM 53.1 °F 43.0 °F 69% 30.22 in 10.0 mi South 8.1 mph - N/A   Clear
10:53 PM 52.0 °F 43.0 °F 71% 30.22 in 10.0 mi SSW 4.6 mph - N/A   Clear
11:53 PM 51.1 °F 42.1 °F 71% 30.22 in 10.0 mi SSW 8.1 mph - N/A   Clear